Terug naar catalogus

STARLINK-35094

ActiefCommunicatieSSO
NORAD 65395·PAYLOAD·🇺🇸 United States

Gelanceerd Aug 30, 2025 vanaf Vandenberg Space Force Base

Loading…

Volgende Passages (komende 24 uur)

TLE

VersSource: CelesTrak SupGP

Epoch: Sep 14, 2026, 22:48 UTC

1 65395C 25191S   26257.95048611  .00062165  00000+0  19303-2 0  2576
2 65395  97.2844 124.1244 0002069  94.4628 244.7049 15.33397522    13

Volg STARLINK-35094 in realtime met AllMySat

Download on the App Store